TimePDT,TemperatureF,Dew PointF,Humidity,Sea Level PressureIn,VisibilityMPH,Wind Direction,Wind SpeedMPH,Gust SpeedMPH,PrecipitationIn,Events,Conditions,WindDirDegrees,DateUTC
12:53 AM,55.9,52.0,87,29.92,10.0,WNW,11.5,-,N/A,,Clear,300,2013-07-11 07:53:00
1:53 AM,55.0,52.0,89,29.91,10.0,WNW,10.4,-,N/A,,Clear,300,2013-07-11 08:53:00
2:53 AM,55.0,53.1,93,29.92,9.0,WNW,9.2,-,N/A,,Scattered Clouds,290,2013-07-11 09:53:00
3:03 AM,55.4,53.6,94,29.92,9.0,WNW,8.1,-,N/A,,Mostly Cloudy,290,2013-07-11 10:03:00
3:32 AM,55.4,53.6,94,29.92,10.0,WNW,5.8,-,N/A,,Overcast,290,2013-07-11 10:32:00
3:53 AM,55.9,53.1,90,29.92,10.0,WNW,6.9,-,N/A,,Overcast,300,2013-07-11 10:53:00
4:53 AM,55.9,53.1,90,29.91,10.0,West,3.5,-,N/A,,Overcast,280,2013-07-11 11:53:00
5:53 AM,55.9,52.0,87,29.92,10.0,NW,6.9,-,N/A,,Overcast,310,2013-07-11 12:53:00
6:53 AM,57.0,52.0,83,29.93,10.0,WNW,8.1,-,N/A,,Overcast,290,2013-07-11 13:53:00
7:53 AM,57.9,52.0,81,29.93,10.0,West,3.5,-,N/A,,Overcast,270,2013-07-11 14:53:00
8:31 AM,59.0,51.8,77,29.94,10.0,Calm,Calm,-,N/A,,Scattered Clouds,0,2013-07-11 15:31:00
8:53 AM,62.1,52.0,70,29.94,10.0,West,11.5,-,N/A,,Partly Cloudy,280,2013-07-11 15:53:00
9:53 AM,64.0,51.1,63,29.93,10.0,WNW,8.1,-,N/A,,Clear,290,2013-07-11 16:53:00
10:53 AM,68.0,51.1,55,29.92,10.0,WNW,8.1,-,N/A,,Clear,300,2013-07-11 17:53:00
11:53 AM,73.0,51.1,46,29.91,10.0,WNW,9.2,-,N/A,,Clear,300,2013-07-11 18:53:00
12:53 PM,77.0,52.0,42,29.90,10.0,WNW,11.5,-,N/A,,Clear,300,2013-07-11 19:53:00
1:53 PM,82.0,52.0,35,29.88,10.0,WNW,13.8,-,N/A,,Clear,300,2013-07-11 20:53:00
2:53 PM,80.1,52.0,38,29.87,10.0,WNW,18.4,25.3,N/A,,Clear,300,2013-07-11 21:53:00
3:53 PM,80.1,52.0,38,29.86,10.0,NW,17.3,-,N/A,,Clear,310,2013-07-11 22:53:00
4:53 PM,78.1,52.0,40,29.85,10.0,WNW,16.1,-,N/A,,Clear,290,2013-07-11 23:53:00
5:53 PM,73.0,51.1,46,29.85,10.0,WNW,16.1,-,N/A,,Clear,290,2013-07-12 00:53:00
6:53 PM,70.0,51.1,51,29.86,10.0,NW,16.1,-,N/A,,Clear,310,2013-07-12 01:53:00
7:53 PM,64.9,51.1,61,29.86,10.0,WNW,15.0,-,N/A,,Clear,300,2013-07-12 02:53:00
8:53 PM,60.1,51.1,72,29.88,10.0,WNW,11.5,-,N/A,,Clear,300,2013-07-12 03:53:00
9:53 PM,57.9,51.1,78,29.90,10.0,WNW,11.5,-,N/A,,Clear,290,2013-07-12 04:53:00
10:53 PM,57.0,52.0,83,29.90,10.0,WNW,12.7,-,N/A,,Clear,300,2013-07-12 05:53:00
11:53 PM,57.0,52.0,83,29.91,10.0,WNW,9.2,-,N/A,,Clear,300,2013-07-12 06:53:00